CW4845 Weather Reports


Display with metric or nautical units.
time (UTC)temp
F
wind
direction
speed
MPH
gust
MPH
rain 1hr
in
rain 24hr
in
rain mn
in
humidity
%
barometer
mb
20260505101830 60 207 9.0 16.0 0.00 0.00 0.00 84 1010.1
20260505101302 59 205 8.0 14.0 0.00 0.00 0.00 85 1010.1
20260505100735 59 201 7.0 13.0 0.00 0.00 0.00 85 1010.1
20260505100209 59 209 7.0 12.0 0.00 0.00 0.00 85 1010.1
20260505095645 59 167 7.0 11.0 0.00 0.00 0.00 85 1010.1
20260505095143 59 197 7.0 11.0 0.00 0.00 0.00 85 1009.8
20260505094620 59 201 9.0 13.0 0.00 0.00 0.00 85 1009.8
20260505094050 59 203 9.0 13.0 0.00 0.00 0.00 84 1009.8
20260505093525 59 220 9.0 13.0 0.00 0.00 0.00 84 1010.1
20260505093028 59 225 8.0 13.0 0.00 0.00 0.00 84 1010.1
20260505092517 59 171 8.0 12.0 0.00 0.00 0.00 84 1010.1
20260505092017 59 197 8.0 11.0 0.00 0.00 0.00 84 1009.8
20260505091521 60 201 9.0 12.0 0.00 0.00 0.00 83 1009.8
20260505091019 60 200 9.0 13.0 0.00 0.00 0.00 83 1009.8
20260505090520 60 190 9.0 13.0 0.00 0.00 0.00 83 1009.8
20260505090014 60 218 10.0 14.0 0.00 0.00 0.00 83 1009.8
20260505085514 60 188 9.0 16.0 0.00 0.00 0.00 83 1009.9
20260505084959 60 202 9.0 16.0 0.00 0.00 0.00 84 1009.9
20260505084503 59 178 9.0 14.0 0.00 0.00 0.00 84 1009.9
20260505083955 59 211 9.0 14.0 0.00 0.00 0.00 85 1009.9
20260505083458 59 201 9.0 16.0 0.00 0.00 0.00 85 1009.9
20260505083206 59 214 9.0 13.0 0.00 0.00 0.00 86 1009.9
20260505082422 59 192 8.0 12.0 0.00 0.00 0.00 85 1009.8
20260505081924 59 192 8.0 12.0 0.00 0.00 0.00 85 1009.8
20260505081409 59 204 8.0 12.0 0.00 0.00 0.00 86 1009.8
20260505081100 59 222 9.0 14.0 0.00 0.00 0.00 86 1009.9
20260505080338 58 201 9.0 17.0 0.00 0.00 0.00 86 1009.9
20260505080055 58 228 10.0 17.0 0.00 0.00 0.00 86 1009.9
20260505075330 58 201 10.0 14.0 0.00 0.00 0.00 86 1009.7
20260505074823 58 209 10.0 16.0 0.00 0.00 0.00 86 1009.7
20260505074325 58 182 10.0 16.0 0.00 0.00 0.00 86 1009.7
20260505073819 58 170 11.0 16.0 0.00 0.00 0.00 86 1009.7
20260505073320 58 188 11.0 17.0 0.00 0.00 0.00 86 1009.7
20260505072749 58 213 11.0 16.0 0.00 0.00 0.00 85 1009.7
20260505072502 58 189 11.0 17.0 0.00 0.00 0.00 85 1009.7
20260505071733 59 218 11.0 17.0 0.00 0.00 0.00 85 1009.7
20260505071452 58 205 11.0 16.0 0.00 0.00 0.00 85 1009.7
20260505070924 58 184 10.0 16.0 0.00 0.00 0.00 85 1009.7
20260505070146 58 214 10.0 15.0 0.00 0.00 0.00 85 1009.7
20260505065625 58 225 10.0 15.0 0.00 0.00 0.00 86 1009.7
20260505065343 58 196 10.0 16.0 0.00 0.00 0.00 86 1009.6
20260505065057 58 177 10.0 16.0 0.00 0.00 0.00 86 1009.6
20260505064111 58 192 10.0 16.0 0.00 0.00 0.00 86 1009.6
20260505064030 58 215 11.0 16.0 0.00 0.00 0.00 87 1009.7
20260505063020 58 192 11.0 16.0 0.00 0.00 0.00 87 1009.7
20260505062519 57 186 10.0 17.0 0.00 0.00 0.00 87 1009.7
20260505062012 57 193 10.0 17.0 0.00 0.00 0.00 86 1009.8
20260505061508 58 199 13.0 20.0 0.00 0.00 0.00 86 1009.8
20260505061232 58 184 15.0 23.0 0.00 0.00 0.00 86 1009.8
20260505060504 58 192 16.0 23.0 0.00 0.00 0.00 86 1010.0
20260505055938 58 183 16.0 23.0 0.00 0.00 0.00 86 1010.0
20260505055410 58 165 16.0 25.0 0.00 0.00 0.00 86 1010.1
20260505055129 58 178 16.0 25.0 0.00 0.00 0.00 86 1010.1
20260505054602 58 196 17.0 28.0 0.00 0.00 0.00 86 1010.1
20260505053845 58 168 16.0 28.0 0.00 0.00 0.00 86 1010.0
20260505053345 58 200 14.0 24.0 0.00 0.00 0.00 86 1010.0
20260505053107 58 147 14.0 24.0 0.00 0.00 0.00 86 1010.0
20260505052342 58 191 14.0 21.0 0.00 0.00 0.00 86 1010.2
20260505051842 58 201 15.0 24.0 0.00 0.00 0.00 86 1010.2
20260505051339 58 203 13.0 24.0 0.00 0.00 0.00 87 1010.2
20260505050837 58 195 12.0 19.0 0.00 0.00 0.00 87 1010.4
20260505050339 57 200 13.0 19.0 0.00 0.00 0.00 87 1010.4
20260505041220 58 199 11.0 20.0 0.00 0.00 0.00 87 1010.6
20260505040719 58 201 12.0 19.0 0.00 0.00 0.00 86 1010.7
20260505040220 58 201 13.0 22.0 0.00 0.00 0.00 86 1010.7
20260505035708 58 175 13.0 22.0 0.00 0.00 0.00 86 1010.7
20260505035207 58 186 12.0 22.0 0.00 0.00 0.00 87 1010.7
20260505034647 58 177 12.0 20.0 0.00 0.00 0.00 86 1010.7
20260505034148 58 190 11.0 19.0 0.00 0.00 0.00 86 1010.7
20260505034136 58 144 12.0 24.0 0.00 0.00 0.00 86 1010.7
20260505033137 58 191 14.0 24.0 0.00 0.00 0.00 86 1010.7
20260505032638 58 208 15.0 24.0 0.00 0.00 0.00 85 1010.7
20260505032114 58 178 15.0 24.0 0.00 0.00 0.00 85 1010.7
20260505031610 59 209 14.0 23.0 0.00 0.00 0.00 85 1010.7
20260505031111 58 206 14.0 22.0 0.00 0.00 0.00 85 1010.7
20260505030547 59 123 14.0 22.0 0.00 0.00 0.00 85 1010.7
20260505030048 59 199 13.0 22.0 0.00 0.00 0.00 85 1010.7
20260505025539 59 175 13.0 21.0 0.00 0.00 0.00 84 1010.7
20260505025309 59 155 13.0 25.0 0.00 0.00 0.00 84 1010.7
20260505024752 59 221 12.0 25.0 0.00 0.00 0.00 84 1010.7
20260505024033 59 188 11.0 21.0 0.00 0.00 0.00 83 1010.7
20260505023530 59 199 11.0 21.0 0.00 0.00 0.00 82 1010.8
20260505023030 60 207 12.0 22.0 0.00 0.00 0.00 81 1010.8
20260505022521 60 139 13.0 22.0 0.00 0.00 0.00 79 1010.8
20260505022017 61 195 15.0 24.0 0.00 0.00 0.00 78 1010.9
20260505021520 61 205 15.0 27.0 0.00 0.00 0.00 78 1010.9
20260505021018 61 194 14.0 27.0 0.00 0.00 0.00 78 1010.9
20260505020741 61 198 13.0 21.0 0.00 0.00 0.00 78 1010.9
20260505015950 61 161 14.0 21.0 0.00 0.00 0.00 78 1010.9
20260505015421 61 180 14.0 23.0 0.00 0.00 0.00 78 1010.8
20260505014920 61 196 14.0 23.0 0.00 0.00 0.00 78 1010.8
20260505014644 61 191 13.0 18.0 0.00 0.00 0.00 78 1010.8
20260505013919 61 207 13.0 17.0 0.00 0.00 0.00 78 1010.8
20260505013420 61 183 13.0 18.0 0.00 0.00 0.00 78 1010.8
20260505012902 61 198 14.0 18.0 0.00 0.00 0.00 77 1010.8
20260505012358 61 177 13.0 21.0 0.00 0.00 0.00 77 1010.7
20260505011902 61 204 12.0 21.0 0.00 0.00 0.00 78 1010.7
20260505011558 60 205 11.0 20.0 0.00 0.00 0.00 79 1010.7
20260505010835 60 186 13.0 20.0 0.00 0.00 0.00 79 1010.6
20260505010310 60 159 14.0 20.0 0.00 0.00 0.00 79 1010.6
20260505005804 60 205 15.0 21.0 0.00 0.00 0.00 79 1010.6
20260505005503 60 185 14.0 22.0 0.00 0.00 0.00 80 1010.4
20260505004732 60 190 13.0 21.0 0.00 0.00 0.00 80 1010.4
20260505004230 60 189 14.0 21.0 0.00 0.00 0.00 80 1010.4
20260505003709 60 178 13.0 20.0 0.00 0.00 0.00 82 1010.2
20260505003208 59 190 12.0 21.0 0.00 0.00 0.00 82 1010.2
20260505002704 59 172 13.0 21.0 0.00 0.00 0.00 82 1010.2
20260505002426 59 170 13.0 21.0 0.00 0.00 0.00 83 1010.2
20260505001634 59 195 13.0 20.0 0.00 0.00 0.00 83 1010.2
20260505001131 59 184 12.0 20.0 0.00 0.00 0.00 83 1010.2
20260505000607 58 192 13.0 20.0 0.00 0.00 0.00 83 1010.0
20260505000314 58 160 14.0 20.0 0.00 0.00 0.00 83 1010.0
20260504235814 58 197 14.0 21.0 0.00 0.00 0.00 82 1010.0
20260504235031 58 178 15.0 21.0 0.00 0.00 0.00 82 1009.8
20260504234530 58 176 15.0 23.0 0.00 0.00 0.00 82 1009.8
20260504234252 58 190 15.0 23.0 0.00 0.00 0.00 82 1009.8
20260504233528 59 190 15.0 22.0 0.00 0.00 0.00 81 1009.7
20260504232957 59 173 15.0 25.0 0.00 0.00 0.00 81 1009.7
20260504232707 59 182 15.0 25.0 0.00 0.00 0.00 81 1009.7
20260504231950 59 183 15.0 24.0 0.00 0.00 0.00 81 1009.7
20260504231421 60 198 14.0 24.0 0.00 0.00 0.00 81 1009.7
20260504230913 60 188 14.0 26.0 0.00 0.00 0.00 80 1009.7
20260504230412 60 203 15.0 28.0 0.00 0.00 0.00 81 1009.7
20260504225851 60 207 16.0 28.0 0.00 0.00 0.00 80 1009.7
20260504225341 60 188 15.0 25.0 0.00 0.00 0.00 79 1009.6
20260504224839 60 210 15.0 23.0 0.00 0.00 0.00 78 1009.6
20260504224319 61 173 17.0 26.0 0.00 0.00 0.00 78 1009.6
20260504223804 61 174 17.0 26.0 0.00 0.00 0.00 78 1009.7
20260504223303 61 167 16.0 26.0 0.00 0.00 0.00 77 1009.7
20260504222750 61 199 17.0 24.0 0.00 0.00 0.00 76 1009.7
20260504222459 61 202 18.0 29.0 0.00 0.00 0.00 75 1009.7
20260504221706 62 180 18.0 29.0 0.00 0.00 0.00 74 1009.7
20260504221205 62 184 17.0 27.0 0.00 0.00 0.00 74 1009.7
20260504220705 62 187 16.0 27.0 0.00 0.00 0.00 74 1009.7
20260504220404 61 203 18.0 28.0 0.00 0.00 0.00 76 1009.7
20260504215640 61 211 17.0 28.0 0.00 0.00 0.00 76 1009.7
20260504215113 62 197 14.0 23.0 0.00 0.00 0.00 76 1009.7
20260504214614 62 207 14.0 23.0 0.00 0.00 0.00 76 1009.7
20260504214113 61 199 16.0 26.0 0.00 0.00 0.00 77 1009.7
20260504213612 61 195 16.0 26.0 0.00 0.00 0.00 76 1009.7
20260504213111 62 173 16.0 25.0 0.00 0.00 0.00 75 1009.7
20260504212611 62 209 16.0 26.0 0.00 0.00 0.00 74 1009.7
20260504212102 62 204 17.0 28.0 0.00 0.00 0.00 75 1009.7
20260504211605 62 224 16.0 28.0 0.00 0.00 0.00 76 1009.7
20260504211036 61 182 17.0 25.0 0.00 0.00 0.00 75 1009.7
20260504210537 61 183 17.0 29.0 0.00 0.00 0.00 75 1009.7
20260504210038 61 180 19.0 29.0 0.00 0.00 0.00 76 1009.7
20260504205529 61 192 19.0 28.0 0.00 0.00 0.00 76 1009.7
20260504205029 61 219 18.0 30.0 0.00 0.00 0.00 76 1009.6
20260504204524 61 180 19.0 30.0 0.00 0.00 0.00 75 1009.6
20260504203958 61 181 18.0 30.0 0.00 0.00 0.00 75 1009.7
20260504203451 61 153 17.0 28.0 0.00 0.00 0.00 75 1009.7
20260504202950 61 190 18.0 28.0 0.00 0.00 0.00 74 1009.7
20260504202440 61 169 16.0 27.0 0.00 0.00 0.00 74 1009.7
20260504201937 62 199 15.0 27.0 0.00 0.00 0.00 74 1009.7
20260504201435 62 188 15.0 27.0 0.00 0.00 0.00 73 1009.7
20260504200907 62 172 17.0 28.0 0.00 0.00 0.00 73 1009.7
20260504200637 62 178 19.0 31.0 0.00 0.00 0.00 71 1009.7
20260504195903 62 165 20.0 31.0 0.00 0.00 0.00 69 1009.7
20260504195401 62 203 18.0 29.0 0.00 0.00 0.00 69 1009.9
20260504195059 61 165 16.0 24.0 0.00 0.00 0.00 72 1009.9
20260504194308 60 161 16.0 23.0 0.00 0.00 0.00 74 1009.9
20260504193757 61 181 15.0 22.0 0.00 0.00 0.00 71 1010.1
20260504193255 62 160 15.0 30.0 0.00 0.00 0.00 70 1010.1
20260504192957 63 136 14.0 30.0 0.00 0.00 0.00 67 1010.1
20260504192211 62 197 14.0 25.0 0.00 0.00 0.00 69 1010.2
20260504191709 64 188 15.0 30.0 0.00 0.00 0.00 66 1010.2
20260504191416 64 191 15.0 30.0 0.00 0.00 0.00 64 1010.2
20260504190657 63 153 15.0 24.0 0.00 0.00 0.00 67 1010.5
20260504190129 64 188 16.0 26.0 0.00 0.00 0.00 65 1010.5
20260504185627 64 176 16.0 26.0 0.00 0.00 0.00 65 1010.5
20260504185128 64 190 17.0 29.0 0.00 0.00 0.00 66 1010.5
20260504184615 63 185 18.0 30.0 0.00 0.00 0.00 67 1010.5
20260504184116 64 176 18.0 30.0 0.00 0.00 0.00 66 1010.5
20260504183615 64 176 16.0 27.0 0.00 0.00 0.00 67 1010.7
20260504183324 64 163 16.0 26.0 0.00 0.00 0.00 68 1010.7
20260504182549 63 178 16.0 29.0 0.00 0.00 0.00 69 1010.7
20260504182051 64 170 16.0 28.0 0.00 0.00 0.00 67 1010.8
20260504181542 64 207 17.0 25.0 0.00 0.00 0.00 66 1010.8
20260504181044 64 178 17.0 27.0 0.00 0.00 0.00 65 1010.8
20260504180527 64 185 17.0 28.0 0.00 0.00 0.00 65 1011.1
20260504180030 64 186 17.0 28.0 0.00 0.00 0.00 66 1011.1
20260504175510 63 199 15.0 31.0 0.00 0.00 0.00 67 1011.2
20260504175005 63 146 15.0 31.0 0.00 0.00 0.00 66 1011.2
20260504174507 64 175 17.0 28.0 0.00 0.00 0.00 66 1011.2
20260504173950 64 182 18.0 28.0 0.00 0.00 0.00 67 1011.2
20260504173423 63 170 16.0 27.0 0.00 0.00 0.00 68 1011.2
20260504172921 63 162 13.0 20.0 0.00 0.00 0.00 68 1011.2
20260504172423 63 173 12.0 19.0 0.00 0.00 0.00 68 1011.7
20260504171911 64 176 13.0 23.0 0.00 0.00 0.00 65 1011.7
20260504171339 64 199 15.0 25.0 0.00 0.00 0.00 64 1011.7
20260504170837 64 190 16.0 27.0 0.00 0.00 0.00 66 1011.8
20260504170338 64 195 16.0 30.0 0.00 0.00 0.00 64 1011.8
20260504150714 63 171 13.0 25.0 0.00 0.00 0.00 63 1012.8
20260504141254 62 182 13.0 25.0 0.00 0.00 0.00 62 1013.0
20260504140754 62 201 12.0 20.0 0.00 0.00 0.00 61 1013.3
20260504140224 62 175 12.0 21.0 0.00 0.00 0.00 61 1013.3
20260504130611 61 204 12.0 17.0 0.00 0.00 0.00 58 1013.8
20260504130319 60 210 13.0 18.0 0.00 0.00 0.00 59 1013.8
20260504110240 52 204 13.0 20.0 0.00 0.00 0.00 74 1014.4